Location: Ballst�dt
(51.0339°N, 10.7172°E)
Time: 18:03:47
(UTC+00:00)

Daily predictions for brighter satellites

Satellite Brightness Start Highest point End
(mag) Time Altitude Azimuth Time Altitude Azimuth Time Altitude Azimuth
Genesis I 3.8 15:55:10 10° WSW 15:59:07 57° NW 16:03:05 10° NE
Cosmos 2263 Rocket 3.3 15:55:41 10° NNW 16:00:08 24° NE 16:04:34 10° E
Feng Yun 1-1 Rocket 4.3 15:55:39 10° SE 16:00:59 54° ENE 16:06:17 10° N
Sich 1 3.3 15:57:51 10° N 16:02:03 45° ENE 16:06:16 10° SSE
ATLAS 5 CENTAUR R/B 3.5 15:58:39 10° NW 16:04:10 51° SW 16:10:27 10° SSE
USA 215 3.6 16:02:20 10° ENE 16:08:40 54° N 16:14:59 10° WNW
FENGYUN 3A 4.5 16:04:25 10° S 16:09:47 58° W 16:15:11 10° NNW
H-2A R/B 3.0 16:10:01 10° SE 16:13:39 44° ENE 16:17:16 10° N
Cosmos 1666 Rocket 3.8 16:09:40 10° N 16:13:53 44° ENE 16:18:02 10° SSE
Okean O Rocket 2.5 16:09:58 10° S 16:14:16 53° W 16:18:33 10° NNW
Cosmos 2369 4.2 16:09:58 10° S 16:15:14 40° ESE 16:20:32 10° NE
ASTEX 1 3.6 16:11:30 10° N 16:16:32 81° W 16:21:31 10° SSW
NOSS 8 (A) 4.5 16:13:41 10° SW 16:16:44 61° NW 16:19:49 10° NE
Cosmos 1869 3.3 16:12:56 10° S 16:16:49 60° E 16:20:42 10° NNE
Cosmos 1624 Rocket 4.5 16:12:22 10° NNW 16:17:24 40° NE 16:22:25 10° SE
Cosmos 2344 3.9 16:10:34 10° WSW 16:18:03 68° NW 16:26:49 10° NE
Cosmos 2082 3.8 16:12:37 10° NNW 16:18:17 87° WSW 16:23:55 10° SSE
COSMO-SKYMED 1 4.2 16:15:48 10° NE 16:18:26 16° E 16:21:05 10° SE
Cosmos 2221 3.0 16:14:17 10° SSW 16:18:35 66° WNW 16:22:58 10° N
Cosmos 2056 Rocket 3.9 16:13:53 10° NNW 16:18:42 38° NE 16:23:31 10° SE
Cosmos 1697 Rocket 3.2 16:13:55 10° S 16:19:09 40° ESE 16:24:24 10° NE
USA 229 DEB 3.7 16:12:46 10° SW 16:19:22 80° SE 16:26:20 10° NE
USA 229 3.7 16:12:54 10° SW 16:19:29 79° SE 16:26:26 10° NE
NOSS 3-1 (C) 3.4 16:16:30 10° SW 16:22:06 77° SE 16:28:41 10° NE
ERBS 2.3 16:19:13 10° SW 16:22:31 71° SE 16:25:19 14° ENE
NOSS 3-1 (A) 3.6 16:19:15 10° SSW 16:24:41 56° SE 16:30:58 10° NE
BREEZE-M DEB (TANK) 3.4 16:14:06 10° WSW 16:24:56 72° S 16:27:59 12° E
YAOGAN 6 3.8 16:22:51 10° ESE 16:25:28 20° ENE 16:28:08 10° NNE
Cosmos 1464 Rocket 4.0 16:20:01 10° N 16:26:07 62° ENE 16:32:11 10° SSE
ALOS 3.9 16:22:13 10° SSW 16:26:34 38° W 16:30:58 10° NNW
SeaSat 1 2.8 16:22:12 10° ESE 16:26:49 42° NE 16:31:28 10° NNW
CZ-4B R/B 4.4 16:22:45 10° S 16:27:48 45° W 16:32:54 10° NNW
Cosmos 1656 3.6 16:22:41 10° SSW 16:28:12 75° ESE 16:33:41 10° NNE
IRS-1C Rocket 4.1 16:23:04 10° SSE 16:28:22 89° WSW 16:33:41 10° NNW
Cosmos 1538 Rocket 4.1 16:23:46 10° SSW 16:29:05 84° WNW 16:34:29 10° NNE
SMAP 3.0 16:25:55 10° SSE 16:30:34 81° ENE 16:35:16 10° NNW
Cosmos 2278 4.2 16:27:35 10° S 16:32:52 41° ESE 16:38:12 10° NE
Cosmos 1072 Rocket 4.4 16:31:34 10° N 16:37:44 80° E 16:43:56 10° SSE
Meteor 2-11 Rocket 4.5 16:33:07 10° N 16:39:09 57° ENE 16:45:11 10° SSE
AQUARIUS 4.2 16:35:46 10° SSE 16:40:16 90° NNE 16:44:49 10° NNW
Cosmos 1844 Rocket 4.3 16:38:05 10° N 16:41:30 16° NNE 16:43:16 14° NE
CENTAUR R/B 3.8 16:38:37 10° NW 16:45:14 35° NNE 16:50:43 17° ENE
Cosmos 1470 Rocket 3.9 16:40:58 10° N 16:45:18 44° ENE 16:49:35 10° SSE
YAOGAN 1 3.4 16:41:36 10° ESE 16:45:19 29° ENE 16:49:04 10° N
Envisat 3.0 16:42:14 10° SSE 16:47:13 60° ENE 16:52:15 10° N
Cosmos 2278 Rocket 4.3 16:46:51 10° N 16:47:53 10° N 16:48:57 10° NNE
Cosmos 2227 4.3 16:45:06 10° NNW 16:50:47 55° NE 16:56:26 10° SE
Cosmos 1356 Rocket 3.7 16:47:00 10° SSW 16:51:12 72° WNW 16:55:29 10° N
COBE Rocket 3.7 16:51:00 10° NNE 16:55:47 66° E 17:00:25 10° S
CSL-04 Debris 4.4 16:53:40 10° SE 16:58:52 46° ENE 17:04:05 10° N
Cosmos 1420 Rocket 4.4 16:54:03 10° NNW 16:58:57 40° NE 17:03:28 12° SE
Cosmos 158 Rocket 4.4 16:56:34 10° S 17:01:28 41° ESE 17:04:39 20° NE
NOSS 2-3 (C) 3.8 16:59:13 10° SSW 17:03:37 67° SE 17:06:56 22° NE
CZ-4 R/B 1.5 16:59:42 10° SE 17:03:40 49° ENE 17:07:35 10° N
SKYMED 2 3.9 17:03:52 16° NNE 17:07:00 42° E 17:11:08 10° S
Cosmos 1452 Rocket 4.0 17:02:11 10° NNW 17:07:09 39° NE 17:10:09 21° ESE
Cosmos 1939 Rocket 3.9 17:07:58 26° NE 17:07:58 26° NE 17:10:53 10° N
ATLAS 3B R/B 3.6 17:02:29 10° NW 17:08:17 30° NNE 17:11:21 22° NE
Cosmos 1371 Rocket 4.1 17:04:24 10° NNW 17:09:37 81° WSW 17:14:47 10° SSE
CSL-04 Rocket 3.7 17:04:35 10° SE 17:09:44 53° ENE 17:14:53 10° N
USA 238 DEB 4.1 17:02:55 10° NW 17:09:45 48° NNE 17:14:04 23° E
USA 238 4.1 17:03:01 10° NW 17:09:51 48° NNE 17:14:08 24° E
Geosat 4.3 17:07:11 22° NE 17:10:06 45° ESE 17:14:54 10° S
Cosmos 1606 3.9 17:08:36 10° SSE 17:10:39 24° SE 17:10:39 24° SE
Lacrosse 4 Rocket 1.8 17:08:25 10° SW 17:12:26 59° NW 17:15:07 20° NNE
NOSS 3-2 (A) 4.2 17:06:19 10° NW 17:13:10 48° NNE 17:17:43 24° E
Cosmos 1633 4.3 17:11:48 10° NNW 17:15:09 35° W 17:18:29 10° SSW
Cosmos 1862 4.3 17:11:47 10° NNW 17:15:38 48° W 17:19:29 10° SSW
Cosmos 1933 3.6 17:14:24 10° SSE 17:18:15 43° E 17:19:00 39° ENE
Meteor 1-20 Rocket 4.4 17:13:09 10° N 17:18:54 53° ENE 17:24:32 10° SSE
Meteor 1-25 Rocket 4.3 17:16:12 10° N 17:21:48 55° ENE 17:27:26 10° SSE
CZ-4 R/B 4.3 17:20:11 10° SSE 17:24:19 86° ENE 17:28:31 10° NNW
Cosmos 1980 Rocket 2.1 17:19:52 10° SSW 17:25:30 70° ESE 17:29:07 23° NE
Cosmos 2112 Rocket 3.9 17:21:03 10° SSW 17:26:16 89° WNW 17:30:27 17° NNE
SL-16 R/B 3.3 17:21:42 10° SSE 17:25:11 24° ESE 17:25:11 24° ESE
Cosmos 2034 Rocket 4.3 17:20:04 10° NNW 17:26:26 72° W 17:32:46 10° S
GEOS 3 Rocket 3.7 17:25:09 32° ENE 17:27:23 56° SE 17:32:34 10° SSW
Ariane Rocket 3.4 17:29:42 38° E 17:30:16 40° ENE 17:35:00 10° N
APEX 2.6 17:27:33 10° SSW 17:30:28 70° SSW 17:30:28 70° SSW
BREEZE-M DEB (TANK) 3.5 17:26:57 10° SW 17:31:08 27° S 17:31:38 26° SSE
CZ-2D R/B 4.4 17:33:07 29° NNE 17:33:07 29° NNE 17:35:18 10° N
Cosmos 1680 Rocket 3.7 17:26:32 10° SSW 17:31:45 72° WNW 17:36:11 15° NNE
Okean-O 3.8 17:27:33 10° S 17:31:47 44° W 17:36:04 10° NNW
Cosmos 2322 Rocket 3.6 17:28:20 10° SSE 17:30:44 20° SE 17:30:44 20° SE
Timation 1 Rocket 4.2 17:31:03 10° NNW 17:37:04 79° ENE 17:41:45 17° SE
Cosmos 44 3.7 17:34:47 10° NNW 17:38:32 38° NNE 17:38:32 38° NNE
Cosmos 1151 Rocket 3.3 17:35:07 10° SSW 17:39:29 69° WNW 17:43:53 10° N
Cosmos 1634 Rocket 3.8 17:36:38 10° N 17:42:50 74° ENE 17:49:00 10° SSE
Cosmos 2263 Rocket 2.1 17:39:13 10° NNW 17:44:49 89° WSW 17:49:12 17° SSE
USA 215 3.3 17:48:57 41° E 17:51:16 64° NNE 17:57:43 10° WNW
Cosmos 2228 Rocket 2.9 17:47:52 10° S 17:52:20 76° E 17:52:41 70° NE
Cosmos 1328 Rocket 4.5 17:48:09 10° SSW 17:52:26 48° WNW 17:56:42 10° N
Cosmos 1933 Rocket 4.1 17:48:33 10° NNW 17:52:49 56° W 17:57:05 10° S
Cosmos 2142 Rocket 4.4 17:46:44 10° N 17:53:09 69° ENE 17:59:28 10° SSE
COSMO-SKYMED 1 2.8 17:52:24 23° N 17:55:05 69° WNW 17:59:24 10° SSW
BREEZE-M DEB (TANK) 4.1 17:53:34 10° W 17:55:05 25° WSW 17:55:05 25° WSW
Meteor 1-14 Rocket 4.2 17:51:49 10° N 17:57:49 74° ENE 18:03:36 11° SSE
Cosmos 1515 Rocket 3.9 17:53:38 10° SSW 17:57:59 65° WNW 18:00:30 24° N
IRS-1A Rocket 4.2 17:57:14 50° ESE 17:58:26 62° ENE 18:04:09 10° N
Tsikada Rocket 4.2 17:52:02 10° SSW 17:58:26 77° WNW 18:04:54 10° N
YAOGAN 6 4.1 17:55:35 10° SSW 17:58:48 35° W 18:02:03 10° NNW
ERBS 3.9 17:56:00 10° W 17:58:20 30° NW 17:58:20 30° NW
NOSS 3-2 (C) 4.1 17:52:45 10° NW 17:59:47 55° NE 18:01:45 45° E
Cosmos 2279 Rocket 3.9 17:53:43 10° N 17:59:55 63° ENE 18:02:41 34° SE
Cosmos 1697 Rocket 3.7 17:57:44 10° WSW 18:03:07 44° NW 18:06:50 19° NNE
USA 116 4.2 18:01:22 38° NNE 18:03:17 87° WNW 18:08:29 10° SSW
SeaSat 1 3.8 17:59:46 10° S 18:04:22 39° WSW 18:09:01 10° NW
NOSS 2-3 (E) 4.5 18:02:19 10° WSW 18:06:49 52° NW 18:08:10 41° N
H-2A R/B 3.8 18:14:20 20° N 18:14:20 20° N 18:16:00 10° N
NOSS 3-1 (A) 4.2 18:10:08 10° WSW 18:15:47 46° NNW 18:18:25 32° NNE
COSMOS 2455 4.3 18:12:34 10° S 18:14:51 22° SSE 18:14:51 22° SSE
YAOGAN 1 4.0 18:17:18 10° SSW 18:21:19 37° W 18:25:22 10° NNW
Cosmos 1844 Rocket 3.6 18:21:18 10° NNW 18:24:56 37° N 18:24:56 37° N
Cosmos 2180 Rocket 4.3 18:24:20 10° N 18:30:11 78° NNE 18:30:11 78° NNE
Cosmos 2278 Rocket 4.1 18:29:50 10° NNW 18:31:52 18° N 18:31:52 18° N
CENTAUR R/B 3.0 18:29:43 10° NW 18:37:23 64° NE 18:37:54 63° ENE
CZ-4 R/B 4.0 18:35:58 10° SW 18:38:57 19° W 18:41:54 10° NW
Lacrosse 4 Rocket 4.1 18:49:41 10° WNW 18:51:27 14° NW 18:51:27 14° NW
ATLAS 3B R/B 3.1 18:53:32 10° NW 18:58:36 50° NNW 18:58:36 50° NNW
USA 238 DEB 4.0 18:54:01 10° NW 19:01:05 65° SW 19:01:32 64° SW
USA 238 4.0 18:54:07 10° NW 19:01:12 66° SW 19:01:36 64° SW
NOSS 3-2 (A) 4.1 18:57:13 10° NW 19:04:35 70° SW 19:05:08 68° SSW
Ariane Rocket 4.5 19:09:55 34° W 19:09:55 34° W 19:13:56 10° NNW
SL-16 R/B 3.7 19:04:18 10° SW 19:07:07 30° SW 19:07:07 30° SW
Cosmos 1980 Rocket 3.8 19:05:07 10° WSW 19:10:02 29° NW 19:10:55 28° NNW
Cosmos 2322 Rocket 4.1 19:10:47 10° SW 19:12:37 21° SW 19:12:37 21° SW
USA 215 4.1 19:36:18 46° W 19:36:18 46° W 19:40:51 10° WNW
CENTAUR R/B 4.3 20:20:35 10° NW 20:25:06 35° WNW 20:25:06 35° WNW
